Regional Weather Roundup
Issued by NWS Midland/Odessa, TX

Skip options and go directly to product.
Home | Oldest Version | Previous Version | Current Version | All | Text Only | Save Text | Print | Product List | Glossary On

Skip product version selection by date and time.   
473
ASUS44 KMAF 280410
RWRMAF
MIDLAND AREA WEATHER ROUNDUP
NATIONAL WEATHER SERVICE MIDLAND TX
1100 PM CDT FRI MAY 27 2016

...IN SOUTHWEST TEXAS AND SOUTHEAST NEW MEXICO...

CITY           SKY/WX    TMP DP  RH WIND       PRES   REMARKS
ALPINE         CLEAR     56  22  26 W9        30.02R
ANDREWS        FAIR      73  26  17 SW9       29.86R
ARTESIA        CLEAR     70  21  16 SW12      29.86R
BIG SPRING     CLEAR     65  39  38 SE5       29.85R
CARLSBAD       CLEAR     69  17  13 W12       29.85R
DRYDEN           N/A     73  25  16 NW6       29.80R
FORT STOCKTON  CLEAR     69  17  13 SW9       29.87R
GUAD PASS      NOT AVBL
HOBBS          CLEAR     66  19  16 SW10      29.88R
MARFA          CLEAR     54  15  21 NE8       30.00R
MIDLAND AIRPK  CLEAR     78  17  10 SW7       29.85R
MIDLAND INTL   CLEAR     75  17  11 SW8       29.84R
ODESSA         CLEAR     75  15  10 SW6       29.86R
PECOS          CLEAR     68  17  14 W7        29.84R
PRESIDIO       FAIR      78  13   8 N10       29.83R
SEMINOLE       CLEAR     66  32  28 SW5       29.87R
SNYDER           N/A     77  28  16 S5        29.82R
WINK           CLEAR     72  16  12 W9        29.83R
$$
...OTHER STATIONS IN TEXAS...

CITY           SKY/WX    TMP DP  RH WIND       PRES   REMARKS
ABILENE        CLEAR     70  65  84 S17G25    29.82R
AMARILLO       CLEAR     59  42  53 N8        29.89R
AUSTIN         PTCLDY    65  65 100 N3        29.81R
BROWNSVILLE    CLEAR     79  77  94 SE6       29.77R
CORPUS CHRISTI CLOUDY    80  71  74 NE17      29.82R
DALLAS FTW     PTCLDY    68  63  84 S6        29.80R
DEL RIO        CLEAR     77  44  30 E5        29.75R
EL PASO        PTCLDY    77  15   9 NW5       29.90R
HOUSTON INT    CLOUDY    66  64  93 E10       29.81R
LUBBOCK        PTCLDY    65  40  39 E6        29.84R
SAN ANGELO     CLEAR     65  54  67 S8        29.80R
SAN ANTONIO    CLEAR     73  67  81 N7        29.81R
WACO           CLOUDY    67  65  93 S8        29.80R
WICHITA FALLS  NOT AVBL
$$
...OTHER LOCATIONS IN NEW MEXICO...

CITY           SKY/WX    TMP DP  RH WIND       PRES   REMARKS
ALAMAGORDO     CLEAR     66  16  14 S8        29.92R
ALBUQUERQUE    MOCLDY    68  24  19 W5        29.96R
CANNON AFB     MOCLDY    62  36  37 VRB3      29.89R
CLOVIS         CLEAR     61  36  39 E8        29.89R
HOLLOMAN AFB   CLEAR     70  16  12 S7        29.89R
ROSWELL        CLEAR     69  24  18 W10       29.85R
RUIDOSO          N/A     63  21  20 NW12G18   30.08R
SANTA FE       PTCLDY    55  31  39 N13       30.02R
TRUTH OR CONSE PTCLDY    72  26  18 NW9       29.92R
TUCUMCARI      CLOUDY    63  42  46 N17       29.92R
$$

USA.gov is the U.S. government's official web portal to all federal, state and local government web resources and services.